Regional Weather Roundup
Issued by NWS

Home | Current Version | Previous Version | Graphics & Text | Print | Product List | Glossary On
Versions: 1 2 3 4 5 6 7 8 9 10 11 12 13 14 15 16 17 18 19 20 21 22 23 24 25 26 27 28 29 30 31 32 33 34 35 36 37 38 39 40 41 42 43 44 45 46 47 48 49 50
362
ASUS45 KSLC 281110
RWRUT

UTAH REGIONAL WEATHER ROUNDUP
NATIONAL WEATHER SERVICE SALT LAKE CITY UT
500 AM MDT TUE MAR 28 2017

UTZ001>011-023>025-281200-

NORTHERN UTAH

CITY           SKY/WX    TMP DP  RH WIND       PRES   REMARKS
BRIGHAM CITY     N/A     42  29  61 N14G23    30.06S
HILL AFB       PTCLDY    37  29  74 NW9       30.03S WCI  30
LOGAN          CLOUDY    40  34  79 N8        30.06S WCI  34
OGDEN          CLEAR     36  30  79 NW8       30.03S WCI  30
SALT LAKE CITY MOCLDY    39  32  76 NW13      30.04R WCI  31
TOOELE VALLEY  CLOUDY    37  32  81 W6        30.07S WCI  33
WENDOVER       CLEAR     40  22  48 NW25      30.10R WCI  29
HEBER CITY     CLOUDY    37  28  70 NE7       29.98R WCI  32
WEST JORDAN    MOCLDY    41  37  83 NW17      30.05S

$$

UTZ011>015-024>027-281200-

CENTRAL/NORTHEAST UTAH

CITY           SKY/WX    TMP DP  RH WIND       PRES   REMARKS
PROVO AIRPORT  MOCLDY    40  31  70 NW18      30.02R WCI  31
MOAB/CANYONLAN CLOUDY    43  42  97 W3        29.83S
DELTA          PTCLDY    32  30  93 NW3       30.06R
PRICE          CLOUDY    40  29  64 NW10      29.88R WCI  33
RICHFIELD      CLOUDY    37  37 100 NE6       30.02S WCI  33
ROOSEVELT      CLOUDY    37  36  93 SW5       29.91S WCI  34
VERNAL         CLOUDY    39  37  92 CALM      29.88R

$$

UTZ013>016-019>022-027-281200-

SOUTHERN UTAH

CITY           SKY/WX    TMP DP  RH WIND       PRES   REMARKS
BRYCE CANYON   MOCLDY    30  24  78 NW17G24   29.94R WCI  18
CEDAR CITY     CLOUDY    35  27  72 N15G23    30.02R WCI  25
MILFORD        MOCLDY    36  27  69 NE13      30.04R WCI  27
ST GEORGE      PTSUNNY   49  32  52 SW5       29.95S
HANKSVILLE     CLOUDY    43  37  81 CALM      29.88S
KANAB          PTCLDY    45  28  53 N15G22    29.94R
BLANDING       CLOUDY    38  37  94 NE3       29.91F

$$

REGIONAL REPORTS     COLORADO/ARIZONA

CITY           SKY/WX    TMP DP  RH WIND       PRES   REMARKS
CRAIG, CO      LGT RAIN  37  33  85 W6        29.86S WCI  32
GRAND JUNCTION CLOUDY    42  42 100 CALM      29.84S
RIFLE, CO      CLOUDY    43  39  86 CALM      29.85S
MONTROSE, CO   LGT RAIN  38  37  97 CALM      29.87F
CORTEZ, CO     LGT RAIN  38  38 100 CALM      29.86S
COLORADO CITY    N/A     43  30  61 NW17      29.94S
PAGE, AZ       CLOUDY    50  31  48 W8        29.83S
GRAND CANYON   CLOUDY    35  29  78 N5        29.87F WCI  31
KINGMAN, AZ    CLEAR     46  21  37 N12       29.94S
FLAGSTAFF, AZ  PTCLDY    31  27  85 VRB5      29.85S WCI  26

$$

REGIONAL REPORTS    NEVADA/IDAHO/WYOMING

CITY           SKY/WX    TMP DP  RH WIND       PRES   REMARKS
LAS VEGAS, NV  PTCLDY    56  21  25 NW18G32   29.99S
ELY, NY        PTCLDY    27  22  81 NW9       30.12S WCI  18
ELKO, NV       CLEAR     28  23  81 CALM      30.20R
POCATELLO, ID  MOCLDY    34  31  88 SW13      30.14R WCI  25
BURLEY, ID     CLOUDY    36  28  73 W12       30.15R WCI  28
FORT BRIDGER,  LGT SNOW  32  32 100 W12       30.01R WCI  23
EVANSTON, WY   CLOUDY    31  28  89 NW20      30.00R WCI  19
ROCK SPRINGS,  CLOUDY    35  32  88 NW14      29.93R WCI  26
KEMMERER, WY     N/A     30  28  93 W5        29.98R WCI  25

$$




USA.gov is the U.S. government's official web portal to all federal, state and local government web resources and services.